AO-07 1 07530U 74089B 20352.55491201 -.00000047 00000-0 -10410-4 0 9995 2 07530 101.8288 321.4462 0012413 12.8155 99.8473 12.53646565108934 UO-11 1 14781U 84021B 20352.58789878 .00000154 00000-0 24917-4 0 9995 2 14781 97.5893 355.4419 0007563 328.5161 31.5600 14.83226698958974 LO-19 1 20442U 90005G 20352.45478164 .00000014 00000-0 21566-4 0 9996 2 20442 98.7172 300.5216 0011427 341.7995 18.2778 14.32970580614764 HUBBLE 1 20580U 90037B 20352.25815878 .00000530 00000-0 21193-4 0 9998 2 20580 28.4684 190.4933 0002524 259.8650 263.5568 15.09512670483574 MET-2/21 1 22782U 93055A 20352.51419308 .00000061 00000-0 41625-4 0 9995 2 22782 82.5500 88.3147 0023698 82.6984 288.4576 13.83833336378367 AO-27 1 22825U 93061C 20352.54128170 -.00000013 00000-0 13078-4 0 9996 2 22825 98.9244 359.6206 0008069 197.6610 162.4292 14.30101076419981 IO-26 1 22826U 93061D 20352.55464308 -.00000007 00000-0 15249-4 0 9999 2 22826 98.9188 359.5612 0008827 185.4260 174.6827 14.30438345420227 FO-29 1 24278U 96046B 20352.47358895 -.00000022 00000-0 16372-4 0 9997 2 24278 98.5876 78.4036 0349289 260.9478 95.1988 13.53101232201630 NOAA-15 1 25338U 98030A 20352.77927657 .00000025 00000-0 29008-4 0 9993 2 25338 98.7012 16.7527 0011445 90.0716 270.1776 14.26004328175357 GO-32 1 25397U 98043D 20352.38323719 -.00000011 00000-0 14744-4 0 9995 2 25397 98.7504 292.6507 0000393 196.9884 163.1281 14.23697287165588 ISS 1 25544U 98067A 20352.88962862 .00000804 00000-0 22602-4 0 9999 2 25544 51.6437 159.5071 0001592 133.7006 12.5642 15.49193753260491 NO-44 1 26931U 01043C 20352.82848743 -.00000011 00000-0 27373-4 0 9994 2 26931 67.0520 29.1678 0007327 273.7226 86.3037 14.30599296 3372 SO-50 1 27607U 02058C 20352.54974301 .00000026 00000-0 24006-4 0 9996 2 27607 64.5537 174.5590 0029986 104.9010 255.5416 14.75692042967734 CO-55 1 27844U 03031E 20352.55467533 .00000045 00000-0 39943-4 0 9993 2 27844 98.6816 357.5238 0008928 242.6989 117.3280 14.22276195906124 CO-57 1 27848U 03031J 20352.56440997 .00000039 00000-0 37447-4 0 9993 2 27848 98.6876 358.1010 0008728 257.0078 103.0125 14.21857968905969 RS-22 1 27939U 03042A 20352.53643118 .00000138 00000-0 33326-4 0 9995 2 27939 98.1151 125.2192 0014006 131.8557 228.3851 14.66923278920851 NOAA-18 1 28654U 05018A 20352.69313651 .00000088 00000-0 71972-4 0 9991 2 28654 99.0209 50.6178 0015127 76.4963 283.7892 14.12565313802879 CO-58 1 28895U 05043F 20352.33503158 .00000165 00000-0 40562-4 0 9997 2 28895 98.0339 123.8600 0017920 66.5723 293.7362 14.63842098807365 Falconsat-3 1 30776U 07006E 20352.83430201 .00003985 00000-0 10169-3 0 9994 2 30776 35.4327 185.9318 0002193 19.8483 340.2330 15.39058781765091 CO-65 1 32785U 08021C 20352.51276570 .00000353 00000-0 43543-4 0 9995 2 32785 97.5913 332.6648 0011608 243.7431 116.2594 14.88589402685177 AAUSAT2 1 32788U 08021F 20352.55735603 .00000999 00000-0 95548-4 0 9997 2 32788 97.4964 348.9854 0012291 153.6032 206.5818 14.95301406686671 DO-64 1 32789U 08021G 20352.67905901 .00001617 00000-0 10804-3 0 9990 2 32789 97.3980 28.9116 0013084 52.4588 307.7828 15.08283123689520 CO-66 1 32791U 08021J 20352.53067029 .00000559 00000-0 61527-4 0 9991 2 32791 97.5547 338.7447 0012425 206.7933 153.2645 14.91216054685661 RS-30 1 32953U 08025A 20352.57718541 .00000028 00000-0 12906-3 0 9998 2 32953 82.5019 164.0429 0019369 15.6562 344.5117 12.43099027570383 PRISM 1 33493U 09002B 20352.58094487 .00000440 00000-0 43461-4 0 9990 2 33493 98.1656 300.6780 0014894 164.9526 195.2140 14.97321455647103 NOAA-19 1 33591U 09005A 20352.78147267 .00000005 00000-0 28342-4 0 9997 2 33591 99.1935 2.8889 0013088 282.9781 76.9928 14.12444380611270 TISAT-1 1 36799U 10035E 20352.46012725 .00000634 00000-0 69360-4 0 9993 2 36799 98.2014 169.9333 0013460 90.5447 269.7313 14.91537460566207 JUGNU 1 37839U 11058B 20352.17192473 .00000302 00000-0 18850-4 0 9992 2 37839 19.9609 254.6768 0018885 242.3768 272.1657 14.12698002474767 SRMSAT 1 37841U 11058D 20352.58362956 .00000312 00000-0 26445-4 0 9995 2 37841 19.9731 320.2960 0012094 95.9887 61.8127 14.10680672474150 AO-71 1 37854U 11061E 20352.48011745 .00003112 00000-0 16065-3 0 9996 2 37854 101.7125 178.4336 0156582 237.3620 121.2402 15.07895544499055 HRBE 1 37855U 11061F 20352.47767617 .00002741 00000-0 14017-3 0 9994 2 37855 101.7258 175.4940 0169120 251.5934 106.6826 15.06917020498766 HORYU-2 1 38340U 12025D 20352.39582782 .00000246 00000-0 43630-4 0 9996 2 38340 98.2581 50.1383 0011748 171.2500 188.8916 14.75943896451535 RS-40 1 38735U 12041C 20352.46510490 -.00000020 00000-0 -21536-3 0 9999 2 38735 82.4772 246.5384 0017260 119.8242 240.4567 12.42580350380585 BEESAT-3 1 39135U 13015F 20352.67404400 .00001766 00000-0 93894-4 0 9995 2 39135 64.8673 69.5114 0021503 210.9408 149.0453 15.18717275423423 BEESAT-2 1 39136U 13015G 20352.66296313 .00001656 00000-0 89681-4 0 9994 2 39136 64.8762 75.2075 0031781 264.3226 95.4276 15.18104802423314 ZACUBE-1 1 39417U 13066B 20352.55745848 .00000386 00000-0 54342-4 0 9997 2 39417 97.5769 340.5112 0059707 38.6647 321.8818 14.81383990382142 TRITON-1 1 39427U 13066M 20352.68883355 .00000186 00000-0 37677-4 0 9998 2 39427 97.7523 303.6896 0112695 211.4916 147.9512 14.68115805378739 GOMX-1 1 39430U 13066Q 20352.86163732 .00000411 00000-0 83415-4 0 9994 2 39430 97.8061 280.4324 0150388 327.3603 31.8378 14.59504155376559 LO-74 1 39440U 13066AA 20352.52129938 .00000311 00000-0 49683-4 0 9996 2 39440 97.6532 325.1235 0081375 105.6078 255.4132 14.76117352379587 AO-73 1 39444U 13066AE 20352.51617637 .00000474 00000-0 63941-4 0 9990 2 39444 97.5693 342.7882 0058602 30.2693 330.1885 14.82263193380483 SPROUT 1 39770U 14029E 20352.87727299 .00001238 00000-0 14060-3 0 9993 2 39770 97.9069 98.5183 0010345 86.0594 274.1823 14.88069540356339 DUCHIFAT-1 1 40021U 14033M 20352.55963923 .00000762 00000-0 82681-4 0 9996 2 40021 97.9572 285.0358 0013987 47.9375 312.3030 14.91103904353175 NANOSATCBR1 1 40024U 14033Q 20352.55173990 .00000621 00000-0 69843-4 0 9995 2 40024 97.9392 280.7827 0013366 52.7281 307.5153 14.90241262352509 DTUSAT-2 1 40030U 14033W 20352.50073360 .00000383 00000-0 46794-4 0 9992 2 40030 97.9094 273.8806 0013120 56.9801 303.2674 14.88842413352241 EO-80 1 40032U 14033Y 20352.59287215 .00000422 00000-0 51011-4 0 9991 2 40032 97.9102 273.9766 0013077 57.4805 302.7673 14.88795574352237 ANTELSAT 1 40034U 14033AA 20352.85451803 .00000287 00000-0 49332-4 0 9990 2 40034 97.6916 199.5522 0059643 125.1475 235.5343 14.74361087349435 VELOX-1 1 40057U 14034E 20352.90766397 .00000438 00000-0 68310-4 0 9994 2 40057 98.3031 135.2030 0009594 278.7127 81.3002 14.78014700348727 DAURIA DX 1 1 40071U 14037C 20352.83277776 .00000173 00000-0 29611-4 0 9990 2 40071 98.4583 181.4369 0007180 269.8418 90.1977 14.81429672348403 HODOYOSHI-1 1 40299U 14070B 20352.88054043 .00000963 00000-0 42159-4 0 9993 2 40299 97.3080 65.2173 0011263 269.7363 149.8381 15.24360208339758 CHUBUSAT-1 1 40300U 14070C 20352.76877690 .00001051 00000-0 47705-4 0 9995 2 40300 97.2682 56.2595 0018374 290.4450 185.4921 15.22823576339402 QSAT-EOS 1 40301U 14070D 20352.84723510 .00002747 00000-0 10342-3 0 9995 2 40301 97.2769 62.9934 0023039 257.7070 210.1978 15.27721127339927 FIREBIRD FU3 1 40377U 15003B 20352.54519184 .00002831 00000-0 10825-3 0 9992 2 40377 99.0848 90.1698 0121899 62.4229 298.9321 15.21087279325128 FIREBIRD FU4 1 40378U 15003C 20352.52692056 .00002874 00000-0 10967-3 0 9995 2 40378 99.0852 90.2616 0122018 62.3294 299.0257 15.21122252325121 GRIFEX 1 40379U 15003D 20352.68934417 .00002181 00000-0 92278-4 0 9990 2 40379 99.0867 81.2284 0131876 90.2223 271.4118 15.17138787324622 NO-84 1 40654U 15025D 20351.18066599 .00015580 00000-0 15616-3 0 1316 2 40654 54.9827 180.0195 0097167 302.4345 56.7333 15.59991352197329 DEORBITSAIL 1 40719U 15032E 20352.60934492 .00000546 00000-0 84169-4 0 9998 2 40719 97.8485 236.5096 0016021 340.8187 19.2418 14.77174100293131 NUDT-PHONESAT 1 40900U 15049B 20352.85216758 .00003610 00000-0 14681-3 0 9999 2 40900 97.4263 2.2748 0013820 62.4126 60.3923 15.25094944291136 XW-2A 1 40903U 15049E 20352.85522409 .00003088 00000-0 69476-4 0 9997 2 40903 97.2644 41.7599 0011687 323.6984 154.0871 15.44028905294765 XW-2C 1 40906U 15049H 20352.91083155 .00001036 00000-0 56694-4 0 9996 2 40906 97.4812 351.6375 0016223 96.1005 328.0534 15.16366984290057 XW-2D 1 40907U 15049J 20352.87828516 .00001121 00000-0 60594-4 0 9999 2 40907 97.4803 351.3483 0015783 93.5877 350.6127 15.16637373290077 LILACSAT-2 1 40908U 15049K 20352.89573229 .00000328 00000-0 21532-4 0 9997 2 40908 97.4981 349.4671 0017371 105.3665 317.9954 15.14215871289754 XW-2E 1 40909U 15049L 20352.85250866 .00001750 00000-0 86932-4 0 9998 2 40909 97.4649 355.0861 0015090 84.2460 0.3197 15.18913234290367 XW-2F 1 40910U 15049M 20352.86854551 .00001800 00000-0 90520-4 0 9996 2 40910 97.4700 354.1779 0016281 83.2398 34.6340 15.18419203290162 XW-2B 1 40911U 15049N 20352.87731779 .00001241 00000-0 66892-4 0 9998 2 40911 97.4806 352.0443 0015673 94.5350 21.9202 15.16560393289969 DCBB 1 40912U 15049P 20352.83553419 .00001860 00000-0 87086-4 0 9993 2 40912 97.4472 358.4468 0016250 61.1846 60.9827 15.20873457290587 TW-1C 1 40926U 15051B 20352.87809059 .00088078 00000-0 44063-3 0 9992 2 40926 97.0561 46.9425 0004234 109.4967 305.2792 15.81551535295823 TW-1A 1 40928U 15051D 20352.84817256 .00004654 00000-0 10390-3 0 9993 2 40928 97.0938 16.1792 0008283 231.6020 215.3751 15.43995474293652 IO-86 1 40931U 15052B 20352.45432422 .00000721 00000-0 11223-4 0 9991 2 40931 5.9990 110.3176 0013858 345.9755 14.0301 14.76655620282354 LQSat 1 40958U 15057A 20352.85192584 .00000047 00000-0 14891-4 0 9996 2 40958 97.8309 50.0218 0016743 281.9187 78.0133 14.73146356279502 ATHENOXAT-1 1 41168U 15077C 20352.14597900 .00002615 00000-0 99692-4 0 9990 2 41168 14.9838 160.5650 0010720 151.5008 354.2985 15.14949893277081 ChubuSat-2 1 41338U 16012B 20352.45855167 .00000464 00000-0 29212-4 0 9996 2 41338 31.0030 263.0729 0013655 130.6290 229.5534 15.00403580265243 ChubuSat-3 1 41339U 16012C 20352.89915234 .00000478 00000-0 30199-4 0 9998 2 41339 31.0127 257.6958 0013308 143.3143 216.8396 15.00561515265302 Horyu-4 1 41340U 16012D 20352.10566470 .00000678 00000-0 44256-4 0 9999 2 41340 31.0046 248.4773 0013886 162.8881 197.2224 15.01679709265356 OUFTI-1 1 41458U 16025C 20352.58899013 .00001605 00000-0 82983-4 0 9997 2 41458 98.1220 113.1256 0160160 313.2043 45.5896 15.07603280255062 e-st@r-II 1 41459U 16025D 20352.88970094 .00001583 00000-0 82556-4 0 9991 2 41459 98.1206 112.6973 0162048 314.5625 44.2537 15.07106375255065 AAUSAT4 1 41460U 16025E 20352.86422485 .00002919 00000-0 14323-3 0 9997 2 41460 98.1198 115.7020 0149679 301.0863 57.5740 15.09720805255306 LO-87 1 41557U 16033B 20352.86122597 .00002374 00000-0 87731-4 0 9993 2 41557 97.4006 81.9159 0013838 152.6412 303.2698 15.28641267253785 NuSat2 1 41558U 16033C 20352.85142823 .00002584 00000-0 89525-4 0 9993 2 41558 97.4087 84.9275 0013058 147.8580 330.1505 15.30692274253933 Lapan A3 1 41603U 16040E 20352.91026035 .00000166 00000-0 10792-4 0 9999 2 41603 97.2849 40.4450 0011698 281.3057 258.1979 15.19927322249000 Swayam 1 41607U 16040J 20352.39382143 .00002384 00000-0 98435-4 0 9994 2 41607 97.2948 47.2674 0011234 260.1160 99.8810 15.24932869249296 Pratham 1 41783U 16059A 20352.41601376 .00000084 00000-0 25329-4 0 9991 2 41783 97.9926 42.4894 0034882 99.7254 260.7890 14.63097442225639 AlSat 1N 1 41789U 16059G 20352.89002095 .00000140 00000-0 35281-4 0 9993 2 41789 97.9981 46.2047 0029746 85.0022 275.4569 14.64371575225877 ScatSat 1 41790U 16059H 20352.91088789 .00000040 00000-0 21621-4 0 9994 2 41790 98.3942 29.5344 0006553 76.1083 284.0830 14.50799585223824 TY-1 1 41844U 16066D 20352.83540831 .00001445 00000-0 60143-4 0 9996 2 41844 97.4013 358.9775 0016504 61.2667 61.7711 15.25256638228216 Pegasus-1 1 41846U 16066F 20352.65856395 .00000306 00000-0 55802-4 0 9994 2 41846 98.6380 44.4076 0367172 47.5893 315.5747 14.37900078215296 CAS-2T 1 41847U 16066G 20352.19393621 .00000111 00000-0 26490-4 0 9997 2 41847 98.6299 44.3124 0366261 44.3504 318.6410 14.38126892215680 EO-88 1 42017U 17008BX 20352.47052353 .00002454 00000-0 94687-4 0 9994 2 42017 97.3402 57.2142 0007120 46.1245 314.0581 15.27221119213474 CAS-4B 1 42759U 17034B 20352.67432465 .00000350 00000-0 34564-4 0 9995 2 42759 43.0173 100.2767 0008632 102.5522 39.5698 15.10002119193661 CAS-4A 1 42761U 17034D 20352.67528466 .00000363 00000-0 35277-4 0 9991 2 42761 43.0169 99.4512 0009043 105.1675 37.6121 15.10082304193665 UCLSat 1 42765U 17036A 20352.37650799 .00001958 00000-0 83293-4 0 9991 2 42765 97.2771 41.5008 0012811 100.1197 260.1486 15.24102020194434 NIUSat 1 42766U 17036B 20352.45103914 .00001460 00000-0 66396-4 0 9996 2 42766 97.2769 38.5312 0016954 96.3427 263.9741 15.22159291193524 LituanicaSAT 2 1 42768U 17036D 20352.59852807 .00003241 00000-0 13217-3 0 9997 2 42768 97.2836 42.0251 0015912 90.1794 270.1268 15.25024708193740 Aalto 1 1 42775U 17036L 20352.35787345 .00001206 00000-0 55317-4 0 9990 2 42775 97.2745 38.7590 0015419 95.8532 264.4463 15.22204326193497 URSA MAIOR 1 42776U 17036M 20352.58645412 .00001311 00000-0 59494-4 0 9991 2 42776 97.2758 39.3484 0015211 94.7573 265.5401 15.22426456193544 Max Valier Sat 1 42778U 17036P 20352.41371377 .00001416 00000-0 62900-4 0 9993 2 42778 97.2819 40.7764 0013746 97.8654 262.4144 15.23055336193575 Pegasus 1 42784U 17036V 20352.44073629 .00001789 00000-0 77153-4 0 9991 2 42784 97.2778 41.1759 0013338 101.0222 259.2516 15.23745446193633 NUDATSat 1 42787U 17036Y 20352.59059779 .00003181 00000-0 12878-3 0 9990 2 42787 97.2825 43.1757 0012891 96.2830 263.9871 15.25331758193604 SUCHAI 1 1 42788U 17036Z 20352.59124850 .00002111 00000-0 88823-4 0 9990 2 42788 97.2786 42.0923 0012886 98.7247 261.5451 15.24396965193773 SKCUBE 1 42789U 17036AA 20352.59268842 .00001966 00000-0 83399-4 0 9991 2 42789 97.2781 41.8845 0012759 98.9866 261.2816 15.24194233193683 VZLUSAT 1 1 42790U 17036AB 20352.38511849 .00002712 00000-0 11034-3 0 9994 2 42790 97.2809 42.9657 0012213 97.0686 263.1942 15.25298921193720 VENTA 1 1 42791U 17036AC 20352.43825801 .00001998 00000-0 84778-4 0 9998 2 42791 97.2779 41.7650 0012430 99.8608 260.4034 15.24169852193655 Robusta 1B 1 42792U 17036AD 20352.19438738 .00001993 00000-0 84009-4 0 9993 2 42792 97.2782 41.8096 0012371 100.5439 259.7193 15.24401486193650 D-SAT 1 42794U 17036AF 20352.81621015 .00000491 00000-0 47256-4 0 9991 2 42794 97.4765 16.2252 0127380 112.5784 248.8971 14.91398226190029 TechnoSat 1 42829U 17042E 20352.61305134 .00000313 00000-0 36737-4 0 9991 2 42829 97.4930 225.5016 0015172 38.9186 321.3122 14.91185770186586 QIKCOM-1 1 42983U 98067NF 20352.68752755 .00007351 00000-0 82921-4 0 9995 2 42983 51.6380 100.6950 0003670 28.8018 331.3179 15.63688127178937 AO-91 1 43017U 17073E 20352.38968355 .00000560 00000-0 48626-4 0 9993 2 43017 97.7170 257.5041 0256163 173.8325 186.6147 14.79214458166207 EcAMSat 1 43019U 98067NG 20352.49161952 .00016563 00000-0 13507-3 0 9996 2 43019 51.6414 79.9771 0003858 17.2922 342.8206 15.70764248261511 PICSAT 1 43132U 18004X 20352.48925183 .00002277 00000-0 93893-4 0 9992 2 43132 97.4300 62.5786 0010688 124.8136 235.4109 15.25057944162948 AO-92 1 43137U 18004AC 20352.43814517 .00001718 00000-0 72503-4 0 9994 2 43137 97.4283 62.2117 0010277 126.6801 233.5383 15.24616622162925 TianYi 2 1 43155U 18008A 20352.89451042 .00000928 00000-0 57655-4 0 9991 2 43155 97.4281 57.1317 0016041 232.9634 245.1513 15.11983103160635 Zhou Enlai 1 43156U 18008B 20352.90063057 .00001346 00000-0 82994-4 0 9998 2 43156 97.4328 56.9754 0013345 230.2240 184.9880 15.11558096160588 TianYi 6 1 43158U 18008D 20352.78963194 .00001507 00000-0 93736-4 0 9992 2 43158 97.4266 55.6909 0012551 231.2621 247.4705 15.11052941160502 S-Net D 1 43186U 18014G 20352.47914793 .00000535 00000-0 51554-4 0 9999 2 43186 97.6859 257.2300 0010298 338.7638 21.3155 14.96921304157071 S-Net B 1 43187U 18014H 20352.47901019 .00000531 00000-0 51279-4 0 9997 2 43187 97.6857 257.2025 0010299 338.6658 21.4133 14.96920903157077 S-Net A 1 43188U 18014J 20352.47890893 .00000515 00000-0 49842-4 0 9990 2 43188 97.6860 257.2395 0010296 338.7755 21.3038 14.96919819157075 S-Net C 1 43189U 18014K 20352.47940445 .00000547 00000-0 52623-4 0 9996 2 43189 97.6856 257.1971 0010285 338.6954 21.3838 14.96919908155624 FMN 1 1 43192U 18015A 20352.87356712 .00004177 00000-0 16169-3 0 9990 2 43192 97.4657 121.8567 0015675 158.2117 319.2106 15.26638184159874 Shaonian Xing 1 43199U 18015H 20352.92598047 .00002980 00000-0 11653-3 0 9995 2 43199 97.4440 119.6755 0016564 168.1312 310.4191 15.26529632159942 UBAKUSAT 1 43467U 98067NQ 20352.45713379 .00523844 14899-3 57782-3 0 9997 2 43467 51.6258 48.1469 0007855 21.8493 338.2855 16.08959197149112 EQUISat 1 43552U 98067PA 20352.44869474 .00543309 16079-3 58814-3 0 9996 2 43552 51.6228 56.4198 0008739 22.7698 337.3702 16.09229606139198 SurfSat 1 43614U 18070B 20352.68734885 .00004345 00000-0 10716-3 0 9999 2 43614 93.0271 230.5157 0014612 0.3583 359.7680 15.40476002126677 CP-7 DAVE 1 43615U 18070C 20352.67441390 .00004100 00000-0 10186-3 0 9995 2 43615 93.0274 230.4876 0014761 0.0272 0.0980 15.40257185126662 ELFIN-B 1 43616U 18070D 20352.59204059 .00006841 00000-0 15913-3 0 9993 2 43616 93.0232 230.4749 0014981 0.5477 359.5793 15.42212365126726 ELFIN-A 1 43617U 18070E 20352.59707119 .00006695 00000-0 15409-3 0 9996 2 43617 93.0287 231.1502 0014198 357.9140 2.2054 15.42544263126736 STARS-Me Mother 1 43640U 98067PQ 20352.58712706 .00035041 00000-0 24853-3 0 9993 2 43640 51.6332 95.2519 0004069 358.2398 1.8585 15.73576211125471 CubeBel 1 1 43666U 18083E 20352.90327755 .00001555 00000-0 78000-4 0 9990 2 43666 97.4735 17.4438 0016449 81.8182 39.0571 15.18716080118452 Changshagaoxin 1 43669U 18083H 20352.88468991 .00001210 00000-0 63370-4 0 9990 2 43669 97.4632 15.0575 0012488 78.1592 27.8457 15.17654111118341 Ten-Koh 1 43677U 18084G 20352.58273716 .00000143 00000-0 20555-4 0 9998 2 43677 97.9016 109.4285 0014558 274.7656 85.1899 14.90369139116216 PO-101 1 43678U 18084H 20352.87354534 -.00000226 00000-0 -16759-4 0 9994 2 43678 97.9038 111.5024 0008790 295.9990 64.0320 14.91683956116361 IRVINE 01 1 43693U 18088D 20352.37569674 .00005361 00000-0 21892-3 0 9999 2 43693 85.0341 315.8399 0016550 346.6406 13.4397 15.24019183116696 QO-100 1 43700U 18090A 20352.53328816 .00000143 00000-0 00000-0 0 9998 2 43700 0.0185 343.4517 0001327 312.6223 8.3243 1.00272634 7540 Reaktor Hello World 1 43743U 18096AA 20352.50871809 .00002161 00000-0 81565-4 0 9994 2 43743 97.4054 65.3385 0017133 195.8535 164.2170 15.28007309114342 MinXSS-2 1 43758U 18099A 20352.43203107 .00000433 00000-0 43868-4 0 9999 2 43758 97.6897 61.2189 0014136 300.6244 59.3583 14.95844173111301 AO-95 1 43770U 18099N 20352.42539690 .00000545 00000-0 54830-4 0 9996 2 43770 97.6883 60.4399 0013292 310.0438 49.9616 14.95140559111259 RANGE-B 1 43772U 18099Q 20352.68775884 .00000990 00000-0 94792-4 0 9998 2 43772 97.6958 61.4301 0012655 294.6407 65.3496 14.95381732111295 RANGE-A 1 43773U 18099R 20352.68831349 .00000509 00000-0 51633-4 0 9991 2 43773 97.6821 60.1906 0012061 295.1864 64.8106 14.95080722111282 MOVE-II 1 43780U 18099Y 20352.45386949 .00000465 00000-0 46980-4 0 9995 2 43780 97.6889 60.8166 0012276 306.1833 53.8252 14.95633695111267 SNUSat 2 1 43782U 18099AA 20352.42144792 .00000735 00000-0 71672-4 0 9998 2 43782 97.6880 60.7134 0011266 295.3948 64.6106 14.95397060111269 SnugLite 1 43784U 18099AC 20352.44408676 .00000019 00000-0 69284-5 0 9998 2 43784 97.6843 60.5110 0013862 303.1749 56.8142 14.95505059111287 ITASat 1 1 43786U 18099AE 20352.18112812 -.00000007 00000-0 45910-5 0 9993 2 43786 97.6898 60.7509 0013957 303.2471 56.7412 14.95457095111242 EAGLET 1 1 43790U 18099AJ 20352.66188138 .00000348 00000-0 36292-4 0 9994 2 43790 97.6884 61.5580 0012259 305.8986 54.1096 14.95834505111035 ESEO 1 43792U 18099AL 20352.15357014 .00000522 00000-0 52078-4 0 9995 2 43792 97.6861 60.7819 0011919 305.6239 54.3871 14.95664895111013 CSIM 1 43793U 18099AM 20352.46891624 .00000983 00000-0 91990-4 0 9997 2 43793 97.6866 61.2237 0011602 298.6357 61.3697 14.96290602111050 Astrocast 0.1 1 43798U 18099AS 20352.16419596 .00000228 00000-0 25436-4 0 9997 2 43798 97.6892 61.2089 0010843 286.2076 73.7952 14.95990027111267 JO-97 1 43803U 18099AX 20352.44023794 .00000062 00000-0 10775-4 0 9992 2 43803 97.6862 60.7842 0013878 302.6497 57.3384 14.95666043111280 Suomi 100 1 43804U 18099AY 20352.17519432 .00000028 00000-0 76667-5 0 9997 2 43804 97.6859 60.5039 0013980 303.7654 56.2235 14.95646573111250 Al Farabi 2 1 43805U 18099AZ 20352.53415774 .00000557 00000-0 54967-4 0 9997 2 43805 97.6868 60.9985 0013990 300.8110 59.1715 14.95806163111316 PWSat 2 1 43814U 18099BJ 20352.53494368 .00120446 00000-0 38048-2 0 9993 2 43814 97.7907 78.7785 0011055 263.0479 96.9504 15.32272943111505 CHOMPTT 1 43855U 18104G 20352.66870211 .00001495 00000-0 60752-4 0 9995 2 43855 85.0381 53.9480 0019637 96.5109 263.8371 15.23420712111412 ISAT 1 43879U 18111D 20352.86275016 -.00000019 00000-0 34322-5 0 9990 2 43879 97.6937 257.2299 0013638 357.1747 2.9403 14.96413000105894 UWE-4 1 43880U 18111E 20352.47876846 .00000724 00000-0 68515-4 0 9999 2 43880 97.6952 257.2227 0012168 0.3240 359.7988 14.96657533107867 Sparrow 1 43881U 18111F 20352.45575637 .00000074 00000-0 11517-4 0 9990 2 43881 97.6964 257.2997 0012623 357.6208 2.4952 14.96708141107868 Lume 1 1 43908U 18111AJ 20352.35172745 .00001799 00000-0 73337-4 0 9995 2 43908 97.2500 246.7432 0019780 212.4836 147.5187 15.25561492109900 FO-98 1 43933U 19003B 20352.58852261 .00001261 00000-0 56408-4 0 9991 2 43933 97.2070 35.0935 0016579 320.3654 39.6370 15.22959854106392 FO-99 1 43937U 19003F 20352.60751886 .00001998 00000-0 82434-4 0 9994 2 43937 97.2026 36.8906 0022081 298.9347 60.9677 15.24969335106549 Delphini 1 1 44030U 98067PW 20352.55588525 .00071631 00000-0 37654-3 0 9992 2 44030 51.6315 98.7450 0003310 2.9895 357.1125 15.80055518107298 MYSat 1 1 44045U 18092F 20352.52298298 .00003713 00000-0 10787-3 0 9994 2 44045 51.6376 232.6851 0010116 264.6054 95.3776 15.38054985103447 AstroCast 0.2 1 44083U 19018F 20352.61803651 .00001174 00000-0 54498-4 0 9997 2 44083 97.3992 50.9204 0011540 247.4242 112.5773 15.21957049 95234 AISTechSat 3 1 44103U 19018AB 20352.84053634 .00001347 00000-0 59238-4 0 9992 2 44103 97.3866 51.4239 0011665 262.6024 208.7068 15.23557889 95354 AISat 1 1 44104U 19018AC 20352.47568778 .00001453 00000-0 48273-4 0 9997 2 44104 97.4462 63.1372 0055893 283.1325 76.3682 15.31481770 95815 Raavana-1 1 44329U 98067QE 20352.59285914 .00023967 00000-0 25611-3 0 9992 2 44329 51.6366 133.0761 0005013 320.8628 39.2004 15.63759985 85593 Uguisu 1 44330U 98067QF 20352.68243800 .00024995 00000-0 26853-3 0 9993 2 44330 51.6350 132.8761 0005033 320.6191 39.4437 15.63596055 85588 NepaliSat-1 1 44331U 98067QG 20352.58393206 .00023787 00000-0 25428-3 0 9994 2 44331 51.6349 132.9695 0004932 324.2876 35.7788 15.63755669 85587 Prox-1 1 44339U 19036A 20352.83290935 .00001042 00000-0 19645-3 0 9998 2 44339 24.0014 37.7951 0011415 359.8103 0.2383 14.53280487 78800 Oculus-ASR 1 44348U 19036K 20351.98769470 .00015595 00000-0 22206-3 0 9993 2 44348 28.5128 263.0859 0350498 99.9878 264.0447 15.06917585 81310 Armadillo 1 44352U 19036P 20351.97443435 .00022453 00000-0 30987-3 0 9993 2 44352 28.5277 252.7950 0330189 115.4403 248.0733 15.11734297 81368 NO-104 1 44354U 19036R 20352.44802833 .00016649 00000-0 23245-3 0 9998 2 44354 28.5274 255.5474 0346409 110.6794 253.1285 15.08172664 81427 NO-103 1 44355U 19036S 20351.99145078 .00031822 00000-0 40137-3 0 9998 2 44355 28.5263 237.0652 0307767 140.6930 221.6434 15.18112657 81577 CP9 1 44360U 19036X 20351.92284611 .00045019 -57481-5 42809-3 0 9996 2 44360 28.5069 205.7757 0268027 193.0112 166.3459 15.31056215 81758 Move-IIb 1 44398U 19038N 20352.60469958 .00002107 00000-0 12263-3 0 9995 2 44398 97.5588 311.7989 0023594 213.5491 146.4243 15.12930000 80269 SONATE 1 44400U 19038Q 20352.89719914 .00000754 00000-0 47248-4 0 9998 2 44400 97.5653 312.0711 0023916 212.0161 147.9627 15.12221031 80291 BeeSat 9 1 44412U 19038AC 20352.13488097 .00001378 00000-0 82048-4 0 9993 2 44412 97.5641 311.4749 0021292 219.2239 140.7449 15.12730357 79887 JAISAT-1 1 44419U 19038F 20352.42742551 .00001465 00000-0 85878-4 0 9991 2 44419 97.5643 312.1691 0020180 216.6340 143.3513 15.13214859 80269 LightSail-2 1 44420U 19036AC 20352.79448985 .00005906 00000-0 12159-2 0 9999 2 44420 24.0072 27.6801 0019809 14.5202 345.5857 14.57811916 77066 Taurus 1 1 44530U 19059C 20352.87155961 .00000009 00000-0 15225-4 0 9992 2 44530 98.5612 75.6720 0013145 333.3669 26.6941 14.45800126 66846 Duchifat 3 1 44854U 19089C 20352.65817249 .00000772 00000-0 68501-4 0 9996 2 44854 36.9657 95.5277 0006885 102.6306 257.5211 14.99255107 55807 OPS-SAT 1 44878U 19092F 20352.77248570 .00001622 00000-0 87822-4 0 9996 2 44878 97.4685 173.0291 0015490 81.7320 278.5668 15.15952529 55304 TO-108 1 44881U 19093C 20352.84325549 .00000060 00000-0 14433-4 0 9994 2 44881 97.9440 67.4953 0015188 156.8034 203.3856 14.81417889 53842 FloripaSat 1 1 44885U 19093G 20352.69154148 .00000461 00000-0 64531-4 0 9995 2 44885 97.9443 67.6800 0014939 167.6140 192.5448 14.82155086 53848 RS-44 1 44909U 19096E 20352.38408374 .00000034 00000-0 86832-4 0 9998 2 44909 82.5221 233.7581 0217697 158.5614 202.4781 12.79707764 45585 SwampSat-2 1 45115U 19071E 20352.26301302 .00019433 00000-0 46978-3 0 9990 2 45115 51.6374 194.1439 0008543 3.1645 356.9392 15.41122719 49243 HO-107 1 45119U 19071J 20352.53428387 .00002633 00000-0 88695-4 0 9994 2 45119 51.6405 198.1192 0011544 356.8983 3.1926 15.34518547 49222 Phoenix 1 45258U 98067RB 20352.54024474 .00008423 00000-0 13916-3 0 9996 2 45258 51.6391 156.7304 0005361 297.7048 62.3398 15.53134775 46900 AztechSat-1 1 45261U 98067RE 20352.74125792 .00018478 00000-0 26266-3 0 9990 2 45261 51.6382 152.8354 0006499 312.9911 47.0535 15.56416595 46996 QARMAN 1 45263U 98067RG 20352.50146595 .00014101 00000-0 21345-3 0 9992 2 45263 51.6386 155.7308 0006159 309.3573 50.6872 15.54934189 46974 Quetzal 1 1 45598U 98067RL 20352.75388964 .00013450 00000-0 21278-3 0 9999 2 45598 51.6397 156.6725 0002095 57.2726 302.8466 15.53771721 36255 BY70-2 1 45857U 20042B 20352.92394943 .00001433 00000-0 21255-3 0 9991 2 45857 98.0007 64.4912 0012315 81.9107 278.3475 14.76552534 24755 UPMSat 2 1 46276U 20061E 20352.48166458 .00000722 00000-0 40773-4 0 9994 2 46276 97.4537 63.7515 0000203 70.7897 289.3358 15.16189948 15963 AmicalSat 1 46287U 20061R 20352.50843490 .00000798 00000-0 52786-4 0 9997 2 46287 97.5090 63.6090 0003154 32.2763 327.8659 15.10123914 15888 SALSAT 1 46495U 20068K 20352.62340299 .00000805 00000-0 63772-4 0 9993 2 46495 97.6783 285.3946 0016132 332.3343 27.7023 15.03302500 12015 BY70-3 1 46839U 20079N 20352.86685355 .00003210 00000-0 10475-3 0 9992 2 46839 97.2624 64.2920 0008632 129.2632 342.2745 15.32464704 6389 Bobcat-1 1 46921U 98067RR 20352.30996737 .00007893 00000-0 14118-3 0 9993 2 46921 51.6414 161.9497 0002723 122.7972 237.3280 15.50989120 6568 SPOC 1 46922U 98067RS 20352.17814508 .00010871 00000-0 18963-3 0 9996 2 46922 51.6413 162.5698 0002456 129.5318 230.5888 15.51258920 6501 Neutron-1 1 46923U 98067RT 20352.76335477 .00008098 00000-0 14509-3 0 9995 2 46923 51.6415 159.7274 0002616 135.7677 224.3522 15.50900685 6650 /EX
